Change the Weather History Date:

Monday, February 4, 2013

  Actual Average Record
Temperature  
Mean Temperature 45 °F -  
Max Temperature 57 °F 56 °F 77 °F (2008)
Min Temperature 33 °F 38 °F 19 °F (2009)
Degree Days  
Heating Degree Days 20    
Moisture  
Dew Point 34 °F    
Average Humidity 68    
Maximum Humidity 92    
Minimum Humidity 37    
Precipitation  
Precipitation 0.00 in - - ()
Sea Level Pressure  
Sea Level Pressure 30.10 in    
Wind  
Wind Speed 1 mph (SSE)    
Max Wind Speed 7 mph    
Max Gust Speed -    
Visibility 10 miles    
Events      
Averages and records for this station are not official NWS values.
T = Trace of Precipitation, MM = Missing Value Source: NWS Daily Summary

Daily Weather History Graph

Daily Weather History Graph

Search for Another Location

Airport or City:

Trip Planner

Search our weather history database for the weather conditions in past years. The results will help you decide how hot, cold, wet, or windy it might be!

Date:

Astronomy

Feb. 04, 2013 Rise Set
Actual Time 6:46 AM CST 5:30 PM CST
Civil Twilight 6:20 AM CST 5:55 PM CST
Nautical Twilight 5:51 AM CST 6:25 PM CST
Astronomical Twilight 5:22 AM CST 6:54 PM CST
Moon 1:17 AM CST (2/4) 11:58 AM CST (2/4)
Length of Visible Light 11h 35m
Length of Day
10h 43m
Last Quarter, 37% of the Moon is Illuminated
Feb 4
Last Quarter
Feb 10
New
Feb 17
First Quarter
Feb 25
Full
Mar 4
Last Quarter

Hourly Weather History & Observations

Time (CST) Temp. Dew Point Humidity Pressure Visibility Wind Dir Wind Speed Gust Speed Precip Events Conditions
12:56 AM 36.0 °F 30.0 °F 79% 30.18 in 10.0 mi Calm Calm - N/A   Clear
1:56 AM 36.0 °F 30.0 °F 79% 30.15 in 10.0 mi Calm Calm - N/A   Clear
2:56 AM 35.1 °F 30.9 °F 85% 30.14 in 10.0 mi Calm Calm - N/A   Clear
4:56 AM 35.1 °F 30.9 °F 85% 30.13 in 10.0 mi Calm Calm - N/A   Clear
5:56 AM 34.0 °F 30.9 °F 89% 30.13 in 10.0 mi Calm Calm - N/A   Clear
6:00 AM 33.8 °F 30.2 °F 87% 30.09 in 10.0 mi Calm Calm - N/A   Mostly Cloudy
6:56 AM 34.0 °F 32.0 °F 92% 30.16 in 10.0 mi Calm Calm - N/A   Overcast
7:56 AM 37.0 °F 34.0 °F 89% 30.17 in 10.0 mi Calm Calm - N/A   Overcast
8:56 AM 39.9 °F 33.1 °F 77% 30.17 in 10.0 mi Calm Calm - N/A   Overcast
9:56 AM 44.1 °F 33.1 °F 65% 30.17 in 10.0 mi Calm Calm - N/A   Overcast
10:56 AM 46.9 °F 34.0 °F 61% 30.17 in 10.0 mi SSE 4.6 mph - N/A   Overcast
11:56 AM 50.0 °F 34.0 °F 54% 30.13 in 10.0 mi East 3.5 mph - N/A   Overcast
12:56 PM 55.0 °F 33.1 °F 43% 30.09 in 10.0 mi Variable 4.6 mph - N/A   Overcast
1:56 PM 57.0 °F 30.9 °F 37% 30.07 in 10.0 mi South 6.9 mph - N/A   Overcast
2:56 PM 57.0 °F 30.9 °F 37% 30.05 in 10.0 mi South 4.6 mph - N/A   Mostly Cloudy
3:56 PM 57.0 °F 33.1 °F 40% 30.05 in 10.0 mi Calm Calm - N/A   Mostly Cloudy
4:56 PM 54.0 °F 39.0 °F 57% 30.04 in 10.0 mi SSE 3.5 mph - N/A   Mostly Cloudy
5:56 PM 51.1 °F 39.0 °F 63% 30.04 in 10.0 mi Calm Calm - N/A   Mostly Cloudy
6:56 PM 48.9 °F 39.0 °F 69% 30.04 in 10.0 mi SE 3.5 mph - N/A   Mostly Cloudy
7:56 PM 48.9 °F 39.0 °F 69% 30.04 in 10.0 mi Calm Calm - N/A   Mostly Cloudy
8:56 PM 50.0 °F 37.9 °F 63% 30.05 in 10.0 mi Calm Calm - N/A   Overcast
9:56 PM 48.9 °F 39.0 °F 69% 30.04 in 10.0 mi Calm Calm - N/A   Overcast
10:56 PM 48.9 °F 39.0 °F 69% 30.03 in 10.0 mi Calm Calm - N/A   Overcast
11:56 PM 48.9 °F 39.0 °F 69% 30.02 in 10.0 mi Calm Calm - N/A   Clear